Location: Igri�s
(42.2144°N, 0.4320°W)
Time: 13:02:11
(UTC+00:00)

Cosmos 1470 Rocket - Pass Details

Date: 13 August 2020
Orbit: 604 x 634 km, 82.5° (Epoch: 24 September)

Event Time Altitude Azimuth Distance (km) Brightness Sun altitude
Exits shadow 21:05:16 15° 201° (SSW) 1,669 5.5 -19.8°
Maximum altitude 21:08:48 61° 280° (W) 704 4.0 -20.3°
Drops below altitude 10° 21:13:10 10° 1° (N) 1,984 6.7 -20.9°
Sets 21:15:25 0° 5° (N) 2,889 7.6 -21.1°
